Tracking 30402 objects as of 13-May-2025
HD Live streaming from Space Station
objects crossing your sky now

DMSP 5D-2 F14 DEB

Track DMSP 5D-2 F14 DEB now!
10-day predictions


NORAD ID: 62943
Int'l Code: 1997-012P
Perigee: 802.0 km
Apogee: 857.4 km
Inclination: 98.6 °
Period: 101.3 minutes
Semi major axis: 7200 km
RCS: Unknown
Launch date: April 4, 1997
Source: United States (US)
Launch site: AIR FORCE WESTERN TEST RANGE (AFWTR)

Note: This is SATELLITE DEBRIS
Your satellite tracking list
Your tracking list is empty




NASA's NSSDC Master Catalog

Two Line Element Set (TLE):
1 62943U 97012P   25121.82265110  .00028680  00000-0  13145-1 0  9998
2 62943  98.6495 166.9674 0038495 309.1170  50.6586 14.20822188450023
Source of the keplerian elements: AFSPC